Time,TemperatureF,DewpointF,PressureIn,WindDirection,WindDirectionDegrees,WindSpeedMPH,WindSpeedGustMPH,Humidity,HourlyPrecipIn,Conditions,Clouds,dailyrainin,SoftwareType,DateUTC
2013-08-27 00:00:00,77.7,71.8,30.07,SSW,213,5.0,5.0,82,0.00,,,0.00,Wunderground v.1.15,2013-08-27 04:00:00,
2013-08-27 00:02:00,77.6,71.7,30.07,SSW,199,5.0,5.0,82,0.00,,,0.00,Wunderground v.1.15,2013-08-27 04:02:00,
2013-08-27 00:04:00,77.6,71.7,30.07,SW,218,4.0,5.0,82,0.00,,,0.00,Wunderground v.1.15,2013-08-27 04:04:00,
2013-08-27 00:08:00,77.5,71.6,30.08,SW,216,4.0,5.0,82,0.00,,,0.00,Wunderground v.1.15,2013-08-27 04:08:00,
2013-08-27 00:10:00,77.4,71.8,30.07,SW,231,4.0,4.0,83,0.00,,,0.00,Wunderground v.1.15,2013-08-27 04:10:00,
2013-08-27 00:12:00,77.4,71.8,30.07,SW,233,4.0,4.0,83,0.00,,,0.00,Wunderground v.1.15,2013-08-27 04:12:00,
2013-08-27 00:14:00,77.3,71.7,30.08,SW,217,4.0,4.0,83,0.00,,,0.00,Wunderground v.1.15,2013-08-27 04:14:00,
2013-08-27 00:16:00,77.3,71.7,30.07,SW,214,5.0,5.0,83,0.00,,,0.00,Wunderground v.1.15,2013-08-27 04:16:00,
2013-08-27 00:18:00,77.2,71.6,30.07,SW,214,4.0,5.0,83,0.00,,,0.00,Wunderground v.1.15,2013-08-27 04:18:00,
2013-08-27 00:22:00,77.0,71.4,30.08,SW,223,4.0,4.0,83,0.00,,,0.00,Wunderground v.1.15,2013-08-27 04:22:00,
2013-08-27 00:24:00,76.9,71.7,30.08,SSW,212,4.0,4.0,84,0.00,,,0.00,Wunderground v.1.15,2013-08-27 04:24:00,
2013-08-27 00:26:00,76.9,71.7,30.08,SSW,209,3.0,4.0,84,0.00,,,0.00,Wunderground v.1.15,2013-08-27 04:26:00,
2013-08-27 00:28:00,76.9,71.7,30.08,SW,224,3.0,4.0,84,0.00,,,0.00,Wunderground v.1.15,2013-08-27 04:28:00,
2013-08-27 00:32:00,76.7,71.5,30.08,SW,225,3.0,4.0,84,0.00,,,0.00,Wunderground v.1.15,2013-08-27 04:32:00,
2013-08-27 00:36:00,76.7,71.5,30.08,SSW,198,3.0,4.0,84,0.00,,,0.00,Wunderground v.1.15,2013-08-27 04:36:00,
2013-08-27 00:38:00,76.7,71.5,30.07,SSW,209,3.0,5.0,84,0.00,,,0.00,Wunderground v.1.15,2013-08-27 04:38:00,
2013-08-27 00:44:00,76.6,71.7,30.07,SSW,209,4.0,5.0,85,0.00,,,0.00,Wunderground v.1.15,2013-08-27 04:44:00,
2013-08-27 00:48:00,76.6,71.7,30.07,SSW,196,4.0,6.0,85,0.00,,,0.00,Wunderground v.1.15,2013-08-27 04:48:00,
2013-08-27 00:52:00,76.5,71.7,30.07,SW,214,4.0,4.0,85,0.00,,,0.00,Wunderground v.1.15,2013-08-27 04:52:00,
2013-08-27 00:56:00,76.4,71.6,30.07,SSW,212,4.0,5.0,85,0.00,,,0.00,Wunderground v.1.15,2013-08-27 04:56:00,
2013-08-27 01:00:00,76.4,71.6,30.07,SW,226,4.0,5.0,85,0.00,,,0.00,Wunderground v.1.15,2013-08-27 05:00:00,
2013-08-27 01:02:00,76.4,71.6,30.07,SSW,211,5.0,5.0,85,0.00,,,0.00,Wunderground v.1.15,2013-08-27 05:02:00,
2013-08-27 01:08:00,76.4,71.6,30.07,SW,220,4.0,5.0,85,0.00,,,0.00,Wunderground v.1.15,2013-08-27 05:08:00,
2013-08-27 01:10:00,76.3,71.8,30.07,SSW,212,4.0,4.0,86,0.00,,,0.00,Wunderground v.1.15,2013-08-27 05:10:00,
2013-08-27 01:12:00,76.3,71.8,30.07,SW,222,4.0,4.0,86,0.00,,,0.00,Wunderground v.1.15,2013-08-27 05:12:00,
2013-08-27 01:14:00,76.3,71.8,30.07,SW,218,4.0,4.0,86,0.00,,,0.00,Wunderground v.1.15,2013-08-27 05:14:00,
2013-08-27 01:18:00,76.2,71.7,30.07,SW,227,4.0,6.0,86,0.00,,,0.00,Wunderground v.1.15,2013-08-27 05:18:00,
2013-08-27 01:20:00,76.3,71.8,30.07,SW,214,4.0,6.0,86,0.00,,,0.00,Wunderground v.1.15,2013-08-27 05:20:00,
2013-08-27 01:22:00,76.3,71.8,30.07,SW,224,5.0,6.0,86,0.00,,,0.00,Wunderground v.1.15,2013-08-27 05:22:00,
2013-08-27 01:26:00,76.3,71.8,30.07,SW,224,5.0,6.0,86,0.00,,,0.00,Wunderground v.1.15,2013-08-27 05:26:00,
2013-08-27 01:28:00,76.2,71.7,30.07,SSW,207,5.0,6.0,86,0.00,,,0.00,Wunderground v.1.15,2013-08-27 05:28:00,
2013-08-27 01:32:00,76.2,71.7,30.07,SW,231,5.0,5.0,86,0.00,,,0.00,Wunderground v.1.15,2013-08-27 05:32:00,
2013-08-27 01:34:00,76.2,71.7,30.07,SW,222,5.0,5.0,86,0.00,,,0.00,Wunderground v.1.15,2013-08-27 05:34:00,
2013-08-27 01:36:00,76.1,71.6,30.07,SW,214,5.0,6.0,86,0.00,,,0.00,Wunderground v.1.15,2013-08-27 05:36:00,
2013-08-27 01:38:00,76.0,71.5,30.07,SW,214,5.0,6.0,86,0.00,,,0.00,Wunderground v.1.15,2013-08-27 05:38:00,
2013-08-27 01:44:00,76.0,71.5,30.07,SW,230,5.0,7.0,86,0.00,,,0.00,Wunderground v.1.15,2013-08-27 05:44:00,
2013-08-27 01:48:00,75.9,71.4,30.06,SW,214,5.0,7.0,86,0.00,,,0.00,Wunderground v.1.15,2013-08-27 05:48:00,
2013-08-27 01:50:00,75.9,71.4,30.06,SW,220,5.0,7.0,86,0.00,,,0.00,Wunderground v.1.15,2013-08-27 05:50:00,
2013-08-27 01:54:00,75.9,71.4,30.06,SW,220,5.0,7.0,86,0.00,,,0.00,Wunderground v.1.15,2013-08-27 05:54:00,
2013-08-27 01:56:00,75.9,71.4,30.06,SSW,196,6.0,7.0,86,0.00,,,0.00,Wunderground v.1.15,2013-08-27 05:56:00,
2013-08-27 02:00:00,75.9,71.4,30.06,WSW,237,6.0,6.0,86,0.00,,,0.00,Wunderground v.1.15,2013-08-27 06:00:00,
2013-08-27 02:02:00,75.8,71.3,30.06,SSW,203,6.0,6.0,86,0.00,,,0.00,Wunderground v.1.15,2013-08-27 06:02:00,
2013-08-27 02:04:00,75.8,71.7,30.05,SSW,211,6.0,6.0,87,0.00,,,0.00,Wunderground v.1.15,2013-08-27 06:04:00,
2013-08-27 02:06:00,75.8,71.7,30.06,SW,217,6.0,6.0,87,0.00,,,0.00,Wunderground v.1.15,2013-08-27 06:06:00,
2013-08-27 02:10:00,75.8,71.7,30.05,SSW,201,6.0,6.0,87,0.00,,,0.00,Wunderground v.1.15,2013-08-27 06:10:00,
2013-08-27 02:14:00,75.8,71.7,30.05,SW,236,6.0,6.0,87,0.00,,,0.00,Wunderground v.1.15,2013-08-27 06:14:00,
2013-08-27 02:16:00,75.7,71.6,30.05,SW,221,6.0,7.0,87,0.00,,,0.00,Wunderground v.1.15,2013-08-27 06:16:00,
2013-08-27 02:20:00,75.7,71.6,30.05,SW,219,6.0,6.0,87,0.00,,,0.00,Wunderground v.1.15,2013-08-27 06:20:00,
2013-08-27 02:22:00,75.7,71.6,30.05,WSW,237,6.0,6.0,87,0.00,,,0.00,Wunderground v.1.15,2013-08-27 06:22:00,
2013-08-27 02:24:00,75.6,71.5,30.05,SW,223,6.0,6.0,87,0.00,,,0.00,Wunderground v.1.15,2013-08-27 06:24:00,
2013-08-27 02:26:00,75.6,71.5,30.05,SW,235,6.0,6.0,87,0.00,,,0.00,Wunderground v.1.15,2013-08-27 06:26:00,
2013-08-27 02:30:00,75.5,71.4,30.05,WSW,239,5.0,5.0,87,0.00,,,0.00,Wunderground v.1.15,2013-08-27 06:30:00,
2013-08-27 02:32:00,75.5,71.4,30.05,SW,233,5.0,6.0,87,0.00,,,0.00,Wunderground v.1.15,2013-08-27 06:32:00,
2013-08-27 02:36:00,75.4,71.3,30.05,WSW,244,5.0,6.0,87,0.00,,,0.00,Wunderground v.1.15,2013-08-27 06:36:00,
2013-08-27 02:38:00,75.4,71.3,30.05,WSW,241,5.0,7.0,87,0.00,,,0.00,Wunderground v.1.15,2013-08-27 06:38:00,
2013-08-27 02:42:00,75.3,71.2,30.05,SW,218,6.0,9.0,87,0.00,,,0.00,Wunderground v.1.15,2013-08-27 06:42:00,
2013-08-27 02:46:00,75.3,71.2,30.05,SW,220,6.0,9.0,87,0.00,,,0.00,Wunderground v.1.15,2013-08-27 06:46:00,
2013-08-27 02:52:00,75.2,71.4,30.05,WSW,250,7.0,7.0,88,0.00,,,0.00,Wunderground v.1.15,2013-08-27 06:52:00,
2013-08-27 02:54:00,75.2,71.4,30.04,WSW,238,7.0,7.0,88,0.00,,,0.00,Wunderground v.1.15,2013-08-27 06:54:00,
2013-08-27 02:58:00,75.1,71.3,30.04,SW,229,7.0,7.0,88,0.00,,,0.00,Wunderground v.1.15,2013-08-27 06:58:00,
2013-08-27 03:02:00,75.1,71.3,30.04,SW,222,6.0,7.0,88,0.00,,,0.00,Wunderground v.1.15,2013-08-27 07:02:00,
2013-08-27 03:06:00,75.0,71.2,30.04,SW,227,5.0,7.0,88,0.00,,,0.00,Wunderground v.1.15,2013-08-27 07:06:00,
2013-08-27 03:08:00,74.9,71.1,30.04,SW,218,5.0,7.0,88,0.00,,,0.00,Wunderground v.1.15,2013-08-27 07:08:00,
2013-08-27 03:12:00,74.8,71.0,30.04,SW,226,5.0,5.0,88,0.00,,,0.00,Wunderground v.1.15,2013-08-27 07:12:00,
2013-08-27 03:14:00,74.8,71.0,30.04,SW,214,5.0,5.0,88,0.00,,,0.00,Wunderground v.1.15,2013-08-27 07:14:00,
2013-08-27 03:16:00,74.8,71.0,30.04,SW,231,5.0,6.0,88,0.00,,,0.00,Wunderground v.1.15,2013-08-27 07:16:00,
2013-08-27 03:18:00,74.8,71.0,30.04,SW,223,5.0,6.0,88,0.00,,,0.00,Wunderground v.1.15,2013-08-27 07:18:00,
2013-08-27 03:20:00,74.7,70.9,30.04,SW,235,4.0,4.0,88,0.00,,,0.00,Wunderground v.1.15,2013-08-27 07:20:00,
2013-08-27 03:24:00,74.6,70.8,30.04,SW,234,4.0,4.0,88,0.00,,,0.00,Wunderground v.1.15,2013-08-27 07:24:00,
2013-08-27 03:26:00,74.6,70.8,30.04,SW,226,4.0,4.0,88,0.00,,,0.00,Wunderground v.1.15,2013-08-27 07:26:00,
2013-08-27 03:28:00,74.6,71.1,30.04,WSW,240,4.0,5.0,89,0.00,,,0.00,Wunderground v.1.15,2013-08-27 07:28:00,
2013-08-27 03:32:00,74.4,70.9,30.04,SW,235,3.0,5.0,89,0.00,,,0.00,Wunderground v.1.15,2013-08-27 07:32:00,
2013-08-27 03:34:00,74.4,70.9,30.04,SSW,213,3.0,5.0,89,0.00,,,0.00,Wunderground v.1.15,2013-08-27 07:34:00,
2013-08-27 03:36:00,74.3,70.8,30.04,SW,220,3.0,5.0,89,0.00,,,0.00,Wunderground v.1.15,2013-08-27 07:36:00,
2013-08-27 03:38:00,74.3,70.8,30.04,WSW,249,4.0,5.0,89,0.00,,,0.00,Wunderground v.1.15,2013-08-27 07:38:00,
2013-08-27 03:40:00,74.3,70.8,30.04,SW,232,4.0,4.0,89,0.00,,,0.00,Wunderground v.1.15,2013-08-27 07:40:00,
2013-08-27 03:46:00,74.2,70.7,30.04,WSW,237,5.0,5.0,89,0.00,,,0.00,Wunderground v.1.15,2013-08-27 07:46:00,
2013-08-27 03:48:00,74.2,70.7,30.04,SW,226,4.0,5.0,89,0.00,,,0.00,Wunderground v.1.15,2013-08-27 07:48:00,
2013-08-27 03:50:00,74.2,70.7,30.04,SW,228,4.0,4.0,89,0.00,,,0.00,Wunderground v.1.15,2013-08-27 07:50:00,
2013-08-27 03:52:00,74.2,70.7,30.04,SW,232,5.0,5.0,89,0.00,,,0.00,Wunderground v.1.15,2013-08-27 07:52:00,
2013-08-27 03:54:00,74.2,70.7,30.04,SW,236,5.0,5.0,89,0.00,,,0.00,Wunderground v.1.15,2013-08-27 07:54:00,
2013-08-27 03:56:00,74.1,70.6,30.04,SW,234,4.0,5.0,89,0.00,,,0.00,Wunderground v.1.15,2013-08-27 07:56:00,
2013-08-27 03:58:00,74.1,70.6,30.04,SW,235,4.0,5.0,89,0.00,,,0.00,Wunderground v.1.15,2013-08-27 07:58:00,
2013-08-27 04:00:00,74.1,71.0,30.04,WSW,246,4.0,4.0,90,0.00,,,0.00,Wunderground v.1.15,2013-08-27 08:00:00,
2013-08-27 04:02:00,74.0,70.9,30.04,SW,220,4.0,4.0,90,0.00,,,0.00,Wunderground v.1.15,2013-08-27 08:02:00,
2013-08-27 04:06:00,74.0,70.9,30.04,SW,226,3.0,4.0,90,0.00,,,0.00,Wunderground v.1.15,2013-08-27 08:06:00,
2013-08-27 04:08:00,73.9,70.8,30.04,SW,218,4.0,6.0,90,0.00,,,0.00,Wunderground v.1.15,2013-08-27 08:08:00,
2013-08-27 04:12:00,73.9,70.8,30.04,WSW,241,5.0,6.0,90,0.00,,,0.00,Wunderground v.1.15,2013-08-27 08:12:00,
2013-08-27 04:14:00,74.0,70.9,30.04,WSW,243,5.0,7.0,90,0.00,,,0.00,Wunderground v.1.15,2013-08-27 08:14:00,
2013-08-27 04:16:00,74.0,70.9,30.04,WSW,249,6.0,7.0,90,0.00,,,0.00,Wunderground v.1.15,2013-08-27 08:16:00,
2013-08-27 04:22:00,73.9,70.8,30.04,WSW,240,6.0,6.0,90,0.00,,,0.00,Wunderground v.1.15,2013-08-27 08:22:00,
2013-08-27 04:24:00,73.9,70.8,30.04,SW,229,5.0,6.0,90,0.00,,,0.00,Wunderground v.1.15,2013-08-27 08:24:00,
2013-08-27 04:26:00,73.8,70.7,30.03,SW,224,5.0,6.0,90,0.00,,,0.00,Wunderground v.1.15,2013-08-27 08:26:00,
2013-08-27 04:28:00,73.8,70.7,30.04,WSW,237,5.0,6.0,90,0.00,,,0.00,Wunderground v.1.15,2013-08-27 08:28:00,
2013-08-27 04:30:00,73.8,70.7,30.04,SW,235,5.0,5.0,90,0.00,,,0.00,Wunderground v.1.15,2013-08-27 08:30:00,
2013-08-27 04:32:00,73.8,70.7,30.04,SSW,201,5.0,5.0,90,0.00,,,0.00,Wunderground v.1.15,2013-08-27 08:32:00,
2013-08-27 04:36:00,73.7,70.6,30.04,WSW,243,5.0,5.0,90,0.00,,,0.00,Wunderground v.1.15,2013-08-27 08:36:00,
2013-08-27 04:38:00,73.6,70.5,30.03,SW,219,5.0,5.0,90,0.00,,,0.00,Wunderground v.1.15,2013-08-27 08:38:00,
2013-08-27 04:42:00,73.5,70.4,30.03,SW,230,4.0,4.0,90,0.00,,,0.00,Wunderground v.1.15,2013-08-27 08:42:00,
2013-08-27 04:44:00,73.5,70.4,30.03,SW,228,4.0,4.0,90,0.00,,,0.00,Wunderground v.1.15,2013-08-27 08:44:00,
2013-08-27 04:48:00,73.4,70.6,30.03,SW,218,4.0,4.0,91,0.00,,,0.00,Wunderground v.1.15,2013-08-27 08:48:00,
2013-08-27 04:50:00,73.4,70.6,30.03,SW,222,4.0,4.0,91,0.00,,,0.00,Wunderground v.1.15,2013-08-27 08:50:00,
2013-08-27 04:52:00,73.4,70.6,30.03,WSW,247,5.0,5.0,91,0.00,,,0.00,Wunderground v.1.15,2013-08-27 08:52:00,
2013-08-27 04:57:00,73.4,70.6,30.03,SW,230,5.0,5.0,91,0.00,,,0.00,Wunderground v.1.15,2013-08-27 08:57:00,
2013-08-27 04:58:00,73.4,70.6,30.03,SW,215,6.0,7.0,91,0.00,,,0.00,Wunderground v.1.15,2013-08-27 08:58:00,
2013-08-27 05:00:00,73.4,70.6,30.03,SW,231,6.0,6.0,91,0.00,,,0.00,Wunderground v.1.15,2013-08-27 09:00:00,
2013-08-27 05:04:00,73.4,70.6,30.03,SW,223,6.0,6.0,91,0.00,,,0.00,Wunderground v.1.15,2013-08-27 09:04:00,
2013-08-27 05:06:00,73.3,70.5,30.02,WSW,239,5.0,6.0,91,0.00,,,0.00,Wunderground v.1.15,2013-08-27 09:06:00,
2013-08-27 05:10:00,73.3,70.5,30.03,SW,227,4.0,8.0,91,0.00,,,0.00,Wunderground v.1.15,2013-08-27 09:10:00,
2013-08-27 05:12:00,73.3,70.5,30.03,SW,220,5.0,8.0,91,0.00,,,0.00,Wunderground v.1.15,2013-08-27 09:12:00,
2013-08-27 05:14:00,73.3,70.5,30.03,SW,224,4.0,8.0,91,0.00,,,0.00,Wunderground v.1.15,2013-08-27 09:14:00,
2013-08-27 05:16:00,73.2,70.4,30.02,SSW,212,4.0,8.0,91,0.00,,,0.00,Wunderground v.1.15,2013-08-27 09:16:00,
2013-08-27 05:18:00,73.2,70.4,30.02,SW,226,4.0,8.0,91,0.00,,,0.00,Wunderground v.1.15,2013-08-27 09:18:00,
2013-08-27 05:20:00,73.2,70.4,30.02,SW,216,4.0,7.0,91,0.00,,,0.00,Wunderground v.1.15,2013-08-27 09:20:00,
2013-08-27 05:22:00,73.2,70.4,30.02,WSW,251,4.0,7.0,91,0.00,,,0.00,Wunderground v.1.15,2013-08-27 09:22:00,
2013-08-27 05:24:00,73.2,70.4,30.02,SW,233,4.0,7.0,91,0.00,,,0.00,Wunderground v.1.15,2013-08-27 09:24:00,
2013-08-27 05:26:00,73.2,70.4,30.02,WSW,247,4.0,7.0,91,0.00,,,0.00,Wunderground v.1.15,2013-08-27 09:26:00,
2013-08-27 05:28:00,73.2,70.4,30.02,SW,235,5.0,7.0,91,0.00,,,0.00,Wunderground v.1.15,2013-08-27 09:28:00,
2013-08-27 05:32:00,73.1,70.3,30.02,WSW,238,4.0,5.0,91,0.00,,,0.00,Wunderground v.1.15,2013-08-27 09:32:00,
2013-08-27 05:34:00,73.1,70.3,30.02,SW,228,4.0,5.0,91,0.00,,,0.00,Wunderground v.1.15,2013-08-27 09:34:00,
2013-08-27 05:36:00,73.1,70.3,30.02,SSW,211,3.0,6.0,91,0.00,,,0.00,Wunderground v.1.15,2013-08-27 09:36:00,
2013-08-27 05:38:00,73.1,70.3,30.02,SW,222,3.0,6.0,91,0.00,,,0.00,Wunderground v.1.15,2013-08-27 09:38:00,
2013-08-27 05:42:00,73.1,70.3,30.02,WSW,241,3.0,4.0,91,0.00,,,0.00,Wunderground v.1.15,2013-08-27 09:42:00,
2013-08-27 05:44:00,73.0,70.2,30.02,SSW,203,3.0,4.0,91,0.00,,,0.00,Wunderground v.1.15,2013-08-27 09:44:00,
2013-08-27 05:48:00,73.0,70.2,30.02,SSW,206,4.0,4.0,91,0.00,,,0.00,Wunderground v.1.15,2013-08-27 09:48:00,
2013-08-27 05:52:00,73.0,70.2,30.02,South,180,4.0,6.0,91,0.00,,,0.00,Wunderground v.1.15,2013-08-27 09:52:00,
2013-08-27 05:54:00,73.1,70.3,30.02,SSW,206,4.0,6.0,91,0.00,,,0.00,Wunderground v.1.15,2013-08-27 09:54:00,
2013-08-27 05:56:00,73.0,70.2,30.02,SSW,205,4.0,6.0,91,0.00,,,0.00,Wunderground v.1.15,2013-08-27 09:56:00,
2013-08-27 06:00:00,73.0,70.2,30.02,SW,218,4.0,4.0,91,0.00,,,0.00,Wunderground v.1.15,2013-08-27 10:00:00,
2013-08-27 06:02:00,73.0,70.2,30.02,SW,229,3.0,6.0,91,0.00,,,0.00,Wunderground v.1.15,2013-08-27 10:02:00,
2013-08-27 06:04:00,73.0,70.2,30.02,SW,219,3.0,6.0,91,0.00,,,0.00,Wunderground v.1.15,2013-08-27 10:04:00,
2013-08-27 06:06:00,73.0,70.2,30.02,SW,216,3.0,6.0,91,0.00,,,0.00,Wunderground v.1.15,2013-08-27 10:06:00,
2013-08-27 06:10:00,73.0,70.2,30.02,SW,224,3.0,3.0,91,0.00,,,0.00,Wunderground v.1.15,2013-08-27 10:10:00,
2013-08-27 06:14:00,73.0,70.2,30.02,SW,222,3.0,3.0,91,0.00,,,0.00,Wunderground v.1.15,2013-08-27 10:14:00,
2013-08-27 06:18:00,72.9,70.1,30.02,SW,216,2.0,3.0,91,0.00,,,0.00,Wunderground v.1.15,2013-08-27 10:18:00,
2013-08-27 06:20:00,72.9,70.1,30.02,SSW,213,2.0,2.0,91,0.00,,,0.00,Wunderground v.1.15,2013-08-27 10:20:00,
2013-08-27 06:22:00,72.9,70.1,30.02,SSW,210,2.0,4.0,91,0.00,,,0.00,Wunderground v.1.15,2013-08-27 10:22:00,
2013-08-27 06:24:00,72.9,70.1,30.02,SSW,209,2.0,4.0,91,0.00,,,0.00,Wunderground v.1.15,2013-08-27 10:24:00,
2013-08-27 06:26:00,72.9,70.1,30.03,SW,231,2.0,7.0,91,0.00,,,0.00,Wunderground v.1.15,2013-08-27 10:26:00,
2013-08-27 06:28:00,73.0,70.2,30.02,WSW,245,3.0,7.0,91,0.00,,,0.00,Wunderground v.1.15,2013-08-27 10:28:00,
2013-08-27 06:32:00,73.0,70.2,30.03,SW,223,4.0,8.0,91,0.00,,,0.00,Wunderground v.1.15,2013-08-27 10:32:00,
2013-08-27 06:36:00,73.0,70.2,30.02,SSW,212,3.0,8.0,91,0.00,,,0.00,Wunderground v.1.15,2013-08-27 10:36:00,
2013-08-27 06:38:00,73.0,70.2,30.02,SW,229,3.0,8.0,91,0.00,,,0.00,Wunderground v.1.15,2013-08-27 10:38:00,
2013-08-27 06:42:00,73.0,70.2,30.02,WSW,256,1.0,8.0,91,0.00,,,0.00,Wunderground v.1.15,2013-08-27 10:42:00,
2013-08-27 06:44:00,73.0,70.2,30.02,West,264,1.0,8.0,91,0.00,,,0.00,Wunderground v.1.15,2013-08-27 10:44:00,
2013-08-27 06:48:00,72.9,70.1,30.02,West,260,2.0,8.0,91,0.00,,,0.00,Wunderground v.1.15,2013-08-27 10:48:00,
2013-08-27 06:50:00,72.9,70.1,30.02,West,260,2.0,2.0,91,0.00,,,0.00,Wunderground v.1.15,2013-08-27 10:50:00,
2013-08-27 06:54:00,72.9,70.1,30.02,SSW,210,2.0,8.0,91,0.00,,,0.00,Wunderground v.1.15,2013-08-27 10:54:00,
2013-08-27 06:58:00,72.8,70.0,30.03,SW,222,2.0,8.0,91,0.00,,,0.00,Wunderground v.1.15,2013-08-27 10:58:00,
2013-08-27 07:00:00,72.9,70.1,30.03,SSW,204,2.0,2.0,91,0.00,,,0.00,Wunderground v.1.15,2013-08-27 11:00:00,
2013-08-27 07:02:00,72.9,70.1,30.02,SW,225,2.0,4.0,91,0.00,,,0.00,Wunderground v.1.15,2013-08-27 11:02:00,
2013-08-27 07:08:00,72.9,70.1,30.03,WSW,249,3.0,8.0,91,0.00,,,0.00,Wunderground v.1.15,2013-08-27 11:08:00,
2013-08-27 07:10:00,72.9,70.1,30.03,WSW,246,3.0,8.0,91,0.00,,,0.00,Wunderground v.1.15,2013-08-27 11:10:00,
2013-08-27 07:14:00,72.9,70.1,30.03,SW,230,2.0,8.0,91,0.00,,,0.00,Wunderground v.1.15,2013-08-27 11:14:00,
2013-08-27 07:20:00,72.8,70.0,30.03,SSW,203,1.0,8.0,91,0.00,,,0.00,Wunderground v.1.15,2013-08-27 11:20:00,
2013-08-27 07:22:00,72.9,70.1,30.03,SW,217,1.0,8.0,91,0.00,,,0.00,Wunderground v.1.15,2013-08-27 11:22:00,
2013-08-27 07:24:00,72.9,70.1,30.03,SW,220,2.0,8.0,91,0.00,,,0.00,Wunderground v.1.15,2013-08-27 11:24:00,
2013-08-27 07:26:00,72.9,70.1,30.03,WSW,238,3.0,8.0,91,0.00,,,0.00,Wunderground v.1.15,2013-08-27 11:26:00,
2013-08-27 07:28:00,72.9,70.1,30.03,WSW,251,3.0,8.0,91,0.00,,,0.00,Wunderground v.1.15,2013-08-27 11:28:00,
2013-08-27 07:30:00,72.9,70.1,30.03,SSW,201,3.0,3.0,91,0.00,,,0.00,Wunderground v.1.15,2013-08-27 11:30:00,
2013-08-27 07:34:00,72.9,70.1,30.03,SW,223,4.0,8.0,91,0.00,,,0.00,Wunderground v.1.15,2013-08-27 11:34:00,
2013-08-27 07:38:00,73.0,70.2,30.03,SW,218,3.0,8.0,91,0.00,,,0.00,Wunderground v.1.15,2013-08-27 11:38:00,
2013-08-27 07:40:00,73.0,70.2,30.03,SW,214,2.0,8.0,91,0.00,,,0.00,Wunderground v.1.15,2013-08-27 11:40:00,
2013-08-27 07:42:00,73.0,70.2,30.03,SW,214,2.0,8.0,91,0.00,,,0.00,Wunderground v.1.15,2013-08-27 11:42:00,
2013-08-27 07:46:00,73.1,70.3,30.03,SSW,202,2.0,8.0,91,0.00,,,0.00,Wunderground v.1.15,2013-08-27 11:46:00,
2013-08-27 07:48:00,73.1,70.3,30.03,SSW,203,2.0,8.0,91,0.00,,,0.00,Wunderground v.1.15,2013-08-27 11:48:00,
2013-08-27 07:50:00,73.1,70.3,30.03,SSW,208,2.0,8.0,91,0.00,,,0.00,Wunderground v.1.15,2013-08-27 11:50:00,
2013-08-27 07:54:00,73.2,70.4,30.03,SSW,206,2.0,8.0,91,0.00,,,0.00,Wunderground v.1.15,2013-08-27 11:54:00,
2013-08-27 07:56:00,73.3,70.5,30.03,SSW,202,2.0,8.0,91,0.00,,,0.00,Wunderground v.1.15,2013-08-27 11:56:00,
2013-08-27 08:00:00,73.3,70.5,30.04,SSW,210,1.0,8.0,91,0.00,,,0.00,Wunderground v.1.15,2013-08-27 12:00:00,
2013-08-27 08:02:00,73.4,70.6,30.04,SSW,210,1.0,8.0,91,0.00,,,0.00,Wunderground v.1.15,2013-08-27 12:02:00,
2013-08-27 08:04:00,73.4,70.6,30.04,SSW,210,1.0,8.0,91,0.00,,,0.00,Wunderground v.1.15,2013-08-27 12:04:00,
2013-08-27 08:08:00,73.4,70.6,30.04,SW,227,2.0,8.0,91,0.00,,,0.00,Wunderground v.1.15,2013-08-27 12:08:00,
2013-08-27 08:10:00,73.5,70.7,30.04,SW,216,1.0,8.0,91,0.00,,,0.00,Wunderground v.1.15,2013-08-27 12:10:00,
2013-08-27 08:14:00,73.6,70.8,30.04,SW,214,1.0,8.0,91,0.00,,,0.00,Wunderground v.1.15,2013-08-27 12:14:00,
2013-08-27 08:16:00,73.6,70.8,30.05,West,267,2.0,8.0,91,0.00,,,0.00,Wunderground v.1.15,2013-08-27 12:16:00,
2013-08-27 08:18:00,73.7,70.9,30.04,SSW,195,2.0,8.0,91,0.00,,,0.00,Wunderground v.1.15,2013-08-27 12:18:00,
2013-08-27 08:22:00,73.9,70.8,30.05,WSW,237,3.0,8.0,90,0.00,,,0.00,Wunderground v.1.15,2013-08-27 12:22:00,
2013-08-27 08:24:00,73.9,71.1,30.05,SW,230,3.0,8.0,91,0.00,,,0.00,Wunderground v.1.15,2013-08-27 12:24:00,
2013-08-27 08:26:00,73.9,70.8,30.05,SW,219,4.0,8.0,90,0.00,,,0.00,Wunderground v.1.15,2013-08-27 12:26:00,
2013-08-27 08:28:00,73.9,70.8,30.05,SW,222,4.0,8.0,90,0.00,,,0.00,Wunderground v.1.15,2013-08-27 12:28:00,
2013-08-27 08:30:00,74.0,70.9,30.05,WNW,287,4.0,8.0,90,0.00,,,0.00,Wunderground v.1.15,2013-08-27 12:30:00,
2013-08-27 08:36:00,74.1,71.0,30.05,SW,231,3.0,8.0,90,0.00,,,0.00,Wunderground v.1.15,2013-08-27 12:36:00,
2013-08-27 08:40:00,74.1,71.0,30.04,SW,221,3.0,8.0,90,0.00,,,0.00,Wunderground v.1.15,2013-08-27 12:40:00,
2013-08-27 08:42:00,74.2,71.1,30.05,SSW,206,3.0,8.0,90,0.00,,,0.00,Wunderground v.1.15,2013-08-27 12:42:00,
2013-08-27 08:44:00,74.2,71.1,30.04,SW,228,3.0,8.0,90,0.00,,,0.00,Wunderground v.1.15,2013-08-27 12:44:00,
2013-08-27 08:46:00,74.2,71.1,30.04,NW,307,3.0,8.0,90,0.00,,,0.00,Wunderground v.1.15,2013-08-27 12:46:00,
2013-08-27 08:50:00,74.3,71.2,30.05,SW,215,3.0,8.0,90,0.00,,,0.00,Wunderground v.1.15,2013-08-27 12:50:00,
2013-08-27 08:52:00,74.4,71.3,30.04,WSW,256,4.0,8.0,90,0.00,,,0.00,Wunderground v.1.15,2013-08-27 12:52:00,
2013-08-27 08:58:00,74.6,71.5,30.04,South,189,3.0,8.0,90,0.00,,,0.00,Wunderground v.1.15,2013-08-27 12:58:00,
2013-08-27 09:00:00,74.7,71.6,30.04,WSW,244,3.0,9.0,90,0.00,,,0.00,Wunderground v.1.15,2013-08-27 13:00:00,
2013-08-27 09:02:00,74.8,71.3,30.04,SSW,206,4.0,9.0,89,0.00,,,0.00,Wunderground v.1.15,2013-08-27 13:02:00,
2013-08-27 09:04:00,74.8,71.3,30.04,South,185,4.0,9.0,89,0.00,,,0.00,Wunderground v.1.15,2013-08-27 13:04:00,
2013-08-27 09:06:00,75.0,71.5,30.04,SSW,212,4.0,9.0,89,0.00,,,0.00,Wunderground v.1.15,2013-08-27 13:06:00,
2013-08-27 09:08:00,75.1,71.6,30.04,SSW,211,4.0,9.0,89,0.00,,,0.00,Wunderground v.1.15,2013-08-27 13:08:00,
2013-08-27 09:10:00,75.1,71.6,30.04,SW,233,3.0,8.0,89,0.00,,,0.00,Wunderground v.1.15,2013-08-27 13:10:00,
2013-08-27 09:14:00,75.2,71.7,30.04,SW,221,3.0,8.0,89,0.00,,,0.00,Wunderground v.1.15,2013-08-27 13:14:00,
2013-08-27 09:16:00,75.3,71.5,30.04,SW,235,3.0,8.0,88,0.00,,,0.00,Wunderground v.1.15,2013-08-27 13:16:00,
2013-08-27 09:18:00,75.6,71.8,30.04,West,261,4.0,8.0,88,0.00,,,0.00,Wunderground v.1.15,2013-08-27 13:18:00,
2013-08-27 09:22:00,75.7,71.9,30.04,WNW,287,4.0,8.0,88,0.00,,,0.00,Wunderground v.1.15,2013-08-27 13:22:00,
2013-08-27 09:28:00,76.2,72.4,30.05,WSW,254,4.0,8.0,88,0.00,,,0.00,Wunderground v.1.15,2013-08-27 13:28:00,
2013-08-27 09:30:00,76.2,72.0,30.04,West,278,4.0,4.0,87,0.00,,,0.00,Wunderground v.1.15,2013-08-27 13:30:00,
2013-08-27 09:32:00,76.4,72.2,30.04,WSW,251,3.0,8.0,87,0.00,,,0.00,Wunderground v.1.15,2013-08-27 13:32:00,
2013-08-27 09:34:00,76.5,72.3,30.04,NW,313,3.0,8.0,87,0.00,,,0.00,Wunderground v.1.15,2013-08-27 13:34:00,
2013-08-27 09:38:00,76.7,72.2,30.04,WNW,283,3.0,8.0,86,0.00,,,0.00,Wunderground v.1.15,2013-08-27 13:38:00,
2013-08-27 09:40:00,76.6,72.4,30.04,SW,236,3.0,8.0,87,0.00,,,0.00,Wunderground v.1.15,2013-08-27 13:40:00,
2013-08-27 09:44:00,76.7,72.5,30.05,West,281,3.0,8.0,87,0.00,,,0.00,Wunderground v.1.15,2013-08-27 13:44:00,
2013-08-27 09:46:00,76.8,72.3,30.05,WNW,284,3.0,8.0,86,0.00,,,0.00,Wunderground v.1.15,2013-08-27 13:46:00,
2013-08-27 09:50:00,76.9,72.4,30.05,WSW,245,3.0,8.0,86,0.00,,,0.00,Wunderground v.1.15,2013-08-27 13:50:00,
2013-08-27 09:52:00,77.1,72.6,30.05,WNW,285,3.0,8.0,86,0.00,,,0.00,Wunderground v.1.15,2013-08-27 13:52:00,
2013-08-27 09:54:00,77.3,72.8,30.05,SSW,207,4.0,8.0,86,0.00,,,0.00,Wunderground v.1.15,2013-08-27 13:54:00,
2013-08-27 09:56:00,77.5,73.0,30.05,WSW,250,4.0,8.0,86,0.00,,,0.00,Wunderground v.1.15,2013-08-27 13:56:00,
2013-08-27 09:58:00,77.7,73.2,30.05,SW,214,3.0,8.0,86,0.00,,,0.00,Wunderground v.1.15,2013-08-27 13:58:00,
2013-08-27 10:00:00,77.8,72.9,30.05,West,271,4.0,8.0,85,0.00,,,0.00,Wunderground v.1.15,2013-08-27 14:00:00,
2013-08-27 10:02:00,77.9,73.0,30.05,NW,311,4.0,8.0,85,0.00,,,0.00,Wunderground v.1.15,2013-08-27 14:02:00,
2013-08-27 10:06:00,78.2,73.0,30.04,NW,310,5.0,8.0,84,0.00,,,0.00,Wunderground v.1.15,2013-08-27 14:06:00,
2013-08-27 10:12:00,78.2,73.0,30.04,West,263,5.0,8.0,84,0.00,,,0.00,Wunderground v.1.15,2013-08-27 14:12:00,
2013-08-27 10:14:00,78.2,73.0,30.04,SW,228,5.0,8.0,84,0.00,,,0.00,Wunderground v.1.15,2013-08-27 14:14:00,
2013-08-27 10:16:00,78.1,72.9,30.04,WSW,241,5.0,8.0,84,0.00,,,0.00,Wunderground v.1.15,2013-08-27 14:16:00,
2013-08-27 10:20:00,78.2,73.0,30.04,WNW,290,4.0,8.0,84,0.00,,,0.00,Wunderground v.1.15,2013-08-27 14:20:00,
2013-08-27 10:22:00,78.2,73.0,30.04,WNW,295,4.0,8.0,84,0.00,,,0.00,Wunderground v.1.15,2013-08-27 14:22:00,
2013-08-27 10:24:00,78.2,73.0,30.04,WNW,291,4.0,8.0,84,0.00,,,0.00,Wunderground v.1.15,2013-08-27 14:24:00,
2013-08-27 10:26:00,78.2,72.6,30.05,WNW,291,4.0,8.0,83,0.00,,,0.00,Wunderground v.1.15,2013-08-27 14:26:00,
2013-08-27 10:28:00,78.1,72.5,30.05,WNW,283,5.0,8.0,83,0.00,,,0.00,Wunderground v.1.15,2013-08-27 14:28:00,
2013-08-27 10:30:00,78.1,72.9,30.05,WNW,291,5.0,8.0,84,0.00,,,0.00,Wunderground v.1.15,2013-08-27 14:30:00,
2013-08-27 10:36:00,78.3,73.1,30.05,WNW,295,5.0,8.0,84,0.00,,,0.00,Wunderground v.1.15,2013-08-27 14:36:00,
2013-08-27 10:42:00,78.7,73.1,30.05,WNW,293,4.0,8.0,83,0.00,,,0.00,Wunderground v.1.15,2013-08-27 14:42:00,
2013-08-27 10:44:00,78.8,73.2,30.05,WSW,256,4.0,8.0,83,0.00,,,0.00,Wunderground v.1.15,2013-08-27 14:44:00,
2013-08-27 10:46:00,78.9,73.3,30.04,WNW,285,3.0,8.0,83,0.00,,,0.00,Wunderground v.1.15,2013-08-27 14:46:00,
2013-08-27 10:48:00,78.9,73.3,30.04,West,274,3.0,8.0,83,0.00,,,0.00,Wunderground v.1.15,2013-08-27 14:48:00,
2013-08-27 10:54:00,79.0,73.4,30.05,SSW,204,3.0,8.0,83,0.00,,,0.00,Wunderground v.1.15,2013-08-27 14:54:00,
2013-08-27 10:56:00,79.1,73.5,30.04,West,266,3.0,8.0,83,0.00,,,0.00,Wunderground v.1.15,2013-08-27 14:56:00,
2013-08-27 10:58:00,79.1,73.1,30.04,WNW,295,3.0,8.0,82,0.00,,,0.00,Wunderground v.1.15,2013-08-27 14:58:00,
2013-08-27 11:00:00,79.2,73.6,30.05,West,274,3.0,8.0,83,0.00,,,0.00,Wunderground v.1.15,2013-08-27 15:00:00,
2013-08-27 11:02:00,79.2,73.2,30.05,WNW,298,3.0,8.0,82,0.00,,,0.00,Wunderground v.1.15,2013-08-27 15:02:00,
2013-08-27 11:06:00,79.1,73.1,30.05,WNW,285,4.0,8.0,82,0.00,,,0.00,Wunderground v.1.15,2013-08-27 15:06:00,
2013-08-27 11:08:00,79.0,73.4,30.05,WNW,283,4.0,8.0,83,0.00,,,0.00,Wunderground v.1.15,2013-08-27 15:08:00,
2013-08-27 11:12:00,79.2,73.2,30.04,SW,233,4.0,7.0,82,0.00,,,0.00,Wunderground v.1.15,2013-08-27 15:12:00,
2013-08-27 11:14:00,79.2,73.2,30.04,West,281,4.0,8.0,82,0.00,,,0.00,Wunderground v.1.15,2013-08-27 15:14:00,
2013-08-27 11:20:00,79.3,73.3,30.05,SSW,204,4.0,4.0,82,0.00,,,0.00,Wunderground v.1.15,2013-08-27 15:20:00,
2013-08-27 11:22:00,79.4,73.4,30.05,West,275,3.0,8.0,82,0.00,,,0.00,Wunderground v.1.15,2013-08-27 15:22:00,
2013-08-27 11:24:00,79.5,73.9,30.04,WNW,297,3.0,8.0,83,0.00,,,0.00,Wunderground v.1.15,2013-08-27 15:24:00,
2013-08-27 11:26:00,79.7,74.1,30.04,SW,236,3.0,8.0,83,0.00,,,0.00,Wunderground v.1.15,2013-08-27 15:26:00,
2013-08-27 11:30:00,79.8,73.8,30.04,SW,228,4.0,8.0,82,0.00,,,0.00,Wunderground v.1.15,2013-08-27 15:30:00,
2013-08-27 11:32:00,79.9,73.5,30.04,WNW,301,4.0,8.0,81,0.00,,,0.00,Wunderground v.1.15,2013-08-27 15:32:00,
2013-08-27 11:34:00,80.0,73.6,30.04,SW,230,4.0,8.0,81,0.00,,,0.00,Wunderground v.1.15,2013-08-27 15:34:00,
2013-08-27 11:40:00,80.2,74.2,30.04,SSW,210,3.0,3.0,82,0.00,,,0.00,Wunderground v.1.15,2013-08-27 15:40:00,
2013-08-27 11:46:00,80.4,73.7,30.04,West,268,3.0,8.0,80,0.00,,,0.00,Wunderground v.1.15,2013-08-27 15:46:00,
2013-08-27 11:50:00,80.5,74.1,30.04,SSE,154,3.0,3.0,81,0.00,,,0.00,Wunderground v.1.15,2013-08-27 15:50:00,
2013-08-27 11:52:00,80.7,74.3,30.04,NW,307,2.0,4.0,81,0.00,,,0.00,Wunderground v.1.15,2013-08-27 15:52:00,
2013-08-27 11:56:00,80.8,74.0,30.04,WNW,291,2.0,8.0,80,0.00,,,0.00,Wunderground v.1.15,2013-08-27 15:56:00,
2013-08-27 11:58:00,80.8,74.0,30.04,WSW,253,2.0,8.0,80,0.00,,,0.00,Wunderground v.1.15,2013-08-27 15:58:00,
2013-08-27 12:02:00,81.0,74.2,30.04,SW,231,3.0,8.0,80,0.00,,,0.00,Wunderground v.1.15,2013-08-27 16:02:00,
2013-08-27 12:04:00,81.1,74.3,30.04,SSW,210,3.0,8.0,80,0.00,,,0.00,Wunderground v.1.15,2013-08-27 16:04:00,
2013-08-27 12:08:00,81.2,74.4,30.04,West,260,4.0,8.0,80,0.00,,,0.00,Wunderground v.1.15,2013-08-27 16:08:00,
2013-08-27 12:10:00,81.3,74.2,30.04,SW,224,5.0,5.0,79,0.00,,,0.00,Wunderground v.1.15,2013-08-27 16:10:00,
2013-08-27 12:12:00,81.4,74.6,30.04,SW,223,4.0,8.0,80,0.00,,,0.00,Wunderground v.1.15,2013-08-27 16:12:00,
2013-08-27 12:16:00,81.7,74.5,30.03,WNW,295,4.0,8.0,79,0.00,,,0.00,Wunderground v.1.15,2013-08-27 16:16:00,
2013-08-27 12:18:00,81.9,74.7,30.03,NW,305,3.0,8.0,79,0.00,,,0.00,Wunderground v.1.15,2013-08-27 16:18:00,
2013-08-27 12:20:00,82.2,75.0,30.03,SW,230,3.0,8.0,79,0.00,,,0.00,Wunderground v.1.15,2013-08-27 16:20:00,
2013-08-27 12:22:00,82.4,74.8,30.03,NW,323,3.0,8.0,78,0.00,,,0.00,Wunderground v.1.15,2013-08-27 16:22:00,
2013-08-27 12:24:00,82.7,75.1,30.03,West,276,3.0,8.0,78,0.00,,,0.00,Wunderground v.1.15,2013-08-27 16:24:00,
2013-08-27 12:28:00,82.5,74.2,30.03,SW,228,4.0,8.0,76,0.00,,,0.00,Wunderground v.1.15,2013-08-27 16:28:00,
2013-08-27 12:30:00,82.5,74.6,30.03,WSW,258,4.0,8.0,77,0.00,,,0.00,Wunderground v.1.15,2013-08-27 16:30:00,
2013-08-27 12:32:00,82.7,74.8,30.03,WNW,283,4.0,8.0,77,0.00,,,0.00,Wunderground v.1.15,2013-08-27 16:32:00,
2013-08-27 12:34:00,82.7,74.8,30.03,NW,317,4.0,8.0,77,0.00,,,0.00,Wunderground v.1.15,2013-08-27 16:34:00,
2013-08-27 12:36:00,82.7,74.8,30.03,WNW,295,4.0,8.0,77,0.00,,,0.00,Wunderground v.1.15,2013-08-27 16:36:00,
2013-08-27 12:40:00,82.8,74.8,30.03,WSW,243,4.0,4.0,77,0.00,,,0.00,Wunderground v.1.15,2013-08-27 16:40:00,
2013-08-27 12:42:00,82.8,74.5,30.03,NW,308,4.0,8.0,76,0.00,,,0.00,Wunderground v.1.15,2013-08-27 16:42:00,
2013-08-27 12:44:00,82.9,74.6,30.03,NW,305,4.0,8.0,76,0.00,,,0.00,Wunderground v.1.15,2013-08-27 16:44:00,
2013-08-27 12:48:00,82.9,74.9,30.03,SW,235,3.0,8.0,77,0.00,,,0.00,Wunderground v.1.15,2013-08-27 16:48:00,
2013-08-27 12:50:00,82.9,74.9,30.03,WSW,253,4.0,8.0,77,0.00,,,0.00,Wunderground v.1.15,2013-08-27 16:50:00,
2013-08-27 12:52:00,83.0,74.6,30.03,SW,229,4.0,8.0,76,0.00,,,0.00,Wunderground v.1.15,2013-08-27 16:52:00,
2013-08-27 12:54:00,83.0,74.6,30.03,West,278,4.0,8.0,76,0.00,,,0.00,Wunderground v.1.15,2013-08-27 16:54:00,
2013-08-27 12:56:00,83.1,75.1,30.03,NW,316,4.0,8.0,77,0.00,,,0.00,Wunderground v.1.15,2013-08-27 16:56:00,
2013-08-27 13:00:00,83.4,75.0,30.03,West,265,4.0,4.0,76,0.00,,,0.00,Wunderground v.1.15,2013-08-27 17:00:00,
2013-08-27 13:02:00,83.6,74.8,30.03,SSW,199,4.0,5.0,75,0.00,,,0.00,Wunderground v.1.15,2013-08-27 17:02:00,
2013-08-27 13:08:00,84.0,75.2,30.02,NW,309,4.0,8.0,75,0.00,,,0.00,Wunderground v.1.15,2013-08-27 17:08:00,
2013-08-27 13:10:00,84.1,75.3,30.02,SW,226,4.0,8.0,75,0.00,,,0.00,Wunderground v.1.15,2013-08-27 17:10:00,
2013-08-27 13:12:00,84.2,75.0,30.02,SW,227,4.0,8.0,74,0.00,,,0.00,Wunderground v.1.15,2013-08-27 17:12:00,
2013-08-27 13:14:00,84.2,75.4,30.02,WSW,243,4.0,8.0,75,0.00,,,0.00,Wunderground v.1.15,2013-08-27 17:14:00,
2013-08-27 13:16:00,84.4,74.8,30.02,WSW,242,4.0,8.0,73,0.00,,,0.00,Wunderground v.1.15,2013-08-27 17:16:00,
2013-08-27 13:20:00,84.7,75.5,30.02,WSW,245,3.0,8.0,74,0.00,,,0.00,Wunderground v.1.15,2013-08-27 17:20:00,
2013-08-27 13:22:00,84.9,75.7,30.02,SW,218,3.0,8.0,74,0.00,,,0.00,Wunderground v.1.15,2013-08-27 17:22:00,
2013-08-27 13:26:00,85.2,75.1,30.02,WNW,292,3.0,8.0,72,0.00,,,0.00,Wunderground v.1.15,2013-08-27 17:26:00,
2013-08-27 13:28:00,85.4,75.8,30.02,WSW,251,3.0,8.0,73,0.00,,,0.00,Wunderground v.1.15,2013-08-27 17:28:00,
2013-08-27 13:30:00,85.6,75.5,30.02,West,280,3.0,8.0,72,0.00,,,0.00,Wunderground v.1.15,2013-08-27 17:30:00,
2013-08-27 13:36:00,85.6,75.5,30.02,SW,218,4.0,8.0,72,0.00,,,0.00,Wunderground v.1.15,2013-08-27 17:36:00,
2013-08-27 13:38:00,85.6,75.9,30.01,SW,216,4.0,8.0,73,0.00,,,0.00,Wunderground v.1.15,2013-08-27 17:38:00,
2013-08-27 13:40:00,85.7,75.6,30.01,SW,222,4.0,8.0,72,0.00,,,0.00,Wunderground v.1.15,2013-08-27 17:40:00,
2013-08-27 13:42:00,86.0,75.5,30.01,NW,309,4.0,8.0,71,0.00,,,0.00,Wunderground v.1.15,2013-08-27 17:42:00,
2013-08-27 13:44:00,85.9,75.4,30.01,NW,313,4.0,8.0,71,0.00,,,0.00,Wunderground v.1.15,2013-08-27 17:44:00,
2013-08-27 13:48:00,85.3,75.2,30.01,WSW,243,5.0,9.0,72,0.00,,,0.00,Wunderground v.1.15,2013-08-27 17:48:00,
2013-08-27 13:50:00,85.6,75.9,30.01,SW,229,5.0,8.0,73,0.00,,,0.00,Wunderground v.1.15,2013-08-27 17:50:00,
2013-08-27 13:52:00,85.8,75.3,30.01,SW,220,6.0,8.0,71,0.00,,,0.00,Wunderground v.1.15,2013-08-27 17:52:00,
2013-08-27 13:56:00,85.7,75.2,30.01,WSW,248,5.0,8.0,71,0.00,,,0.00,Wunderground v.1.15,2013-08-27 17:56:00,
2013-08-27 13:58:00,85.9,75.4,30.01,WNW,286,5.0,8.0,71,0.00,,,0.00,Wunderground v.1.15,2013-08-27 17:58:00,
2013-08-27 14:00:00,86.0,75.5,30.00,WNW,296,5.0,8.0,71,0.00,,,0.00,Wunderground v.1.15,2013-08-27 18:00:00,
2013-08-27 14:02:00,86.2,75.3,30.01,SSW,208,4.0,8.0,70,0.00,,,0.00,Wunderground v.1.15,2013-08-27 18:02:00,
2013-08-27 14:04:00,86.4,75.9,30.01,WSW,246,4.0,8.0,71,0.00,,,0.00,Wunderground v.1.15,2013-08-27 18:04:00,
2013-08-27 14:06:00,86.4,75.0,30.00,SW,218,4.0,8.0,69,0.00,,,0.00,Wunderground v.1.15,2013-08-27 18:06:00,
2013-08-27 14:08:00,86.5,75.1,30.00,SSW,195,4.0,8.0,69,0.00,,,0.00,Wunderground v.1.15,2013-08-27 18:08:00,
2013-08-27 14:10:00,86.7,75.7,30.00,WSW,248,4.0,8.0,70,0.00,,,0.00,Wunderground v.1.15,2013-08-27 18:10:00,
2013-08-27 14:12:00,86.7,75.3,30.00,SW,224,4.0,9.0,69,0.00,,,0.00,Wunderground v.1.15,2013-08-27 18:12:00,
2013-08-27 14:16:00,86.7,75.7,30.00,South,174,4.0,9.0,70,0.00,,,0.00,Wunderground v.1.15,2013-08-27 18:16:00,
2013-08-27 14:18:00,86.8,75.8,30.00,SSW,211,4.0,9.0,70,0.00,,,0.00,Wunderground v.1.15,2013-08-27 18:18:00,
2013-08-27 14:24:00,86.5,74.7,30.00,NW,304,5.0,8.0,68,0.00,,,0.00,Wunderground v.1.15,2013-08-27 18:24:00,
2013-08-27 14:26:00,86.5,75.1,30.00,WSW,241,5.0,8.0,69,0.00,,,0.00,Wunderground v.1.15,2013-08-27 18:26:00,
2013-08-27 14:28:00,86.5,74.7,30.00,West,267,5.0,8.0,68,0.00,,,0.00,Wunderground v.1.15,2013-08-27 18:28:00,
2013-08-27 14:30:00,86.6,75.2,29.99,West,272,5.0,5.0,69,0.00,,,0.00,Wunderground v.1.15,2013-08-27 18:30:00,
2013-08-27 14:34:00,86.5,74.7,29.99,WNW,289,4.0,8.0,68,0.00,,,0.00,Wunderground v.1.15,2013-08-27 18:34:00,
2013-08-27 14:36:00,86.5,75.5,29.99,SSW,199,4.0,8.0,70,0.00,,,0.00,Wunderground v.1.15,2013-08-27 18:36:00,
2013-08-27 14:40:00,86.3,74.9,29.99,SW,223,4.0,4.0,69,0.00,,,0.00,Wunderground v.1.15,2013-08-27 18:40:00,
2013-08-27 14:42:00,86.3,74.9,30.00,WSW,253,4.0,8.0,69,0.00,,,0.00,Wunderground v.1.15,2013-08-27 18:42:00,
2013-08-27 14:44:00,86.5,74.7,29.99,SW,231,3.0,8.0,68,0.00,,,0.00,Wunderground v.1.15,2013-08-27 18:44:00,
2013-08-27 14:46:00,86.6,75.2,29.99,SW,224,4.0,8.0,69,0.00,,,0.00,Wunderground v.1.15,2013-08-27 18:46:00,
2013-08-27 14:48:00,86.9,75.5,29.99,SW,232,3.0,8.0,69,0.00,,,0.00,Wunderground v.1.15,2013-08-27 18:48:00,
2013-08-27 14:51:00,87.2,75.3,29.99,SW,220,3.0,3.0,68,0.00,,,0.00,Wunderground v.1.15,2013-08-27 18:51:00,
2013-08-27 14:54:00,87.4,75.1,29.99,SW,222,3.0,9.0,67,0.00,,,0.00,Wunderground v.1.15,2013-08-27 18:54:00,
2013-08-27 14:56:00,87.3,75.0,29.99,SW,224,4.0,9.0,67,0.00,,,0.00,Wunderground v.1.15,2013-08-27 18:56:00,
2013-08-27 14:58:00,87.2,74.5,29.99,SW,216,4.0,9.0,66,0.00,,,0.00,Wunderground v.1.15,2013-08-27 18:58:00,
2013-08-27 15:00:00,87.3,74.5,29.99,WSW,243,5.0,8.0,66,0.00,,,0.00,Wunderground v.1.15,2013-08-27 19:00:00,
2013-08-27 15:04:00,87.3,75.0,29.99,WNW,288,5.0,8.0,67,0.00,,,0.00,Wunderground v.1.15,2013-08-27 19:04:00,
2013-08-27 15:06:00,87.3,75.0,29.99,NW,316,5.0,8.0,67,0.00,,,0.00,Wunderground v.1.15,2013-08-27 19:06:00,
2013-08-27 15:08:00,87.2,74.9,29.99,SSW,207,4.0,8.0,67,0.00,,,0.00,Wunderground v.1.15,2013-08-27 19:08:00,
2013-08-27 15:11:00,87.3,75.0,29.99,SW,214,4.0,4.0,67,0.00,,,0.00,Wunderground v.1.15,2013-08-27 19:11:00,
2013-08-27 15:12:00,87.2,74.9,29.99,SW,218,4.0,8.0,67,0.00,,,0.00,Wunderground v.1.15,2013-08-27 19:12:00,
2013-08-27 15:14:00,87.0,73.8,29.98,WNW,300,4.0,8.0,65,0.00,,,0.00,Wunderground v.1.15,2013-08-27 19:14:00,
2013-08-27 15:16:00,87.0,74.3,29.98,WNW,302,4.0,8.0,66,0.00,,,0.00,Wunderground v.1.15,2013-08-27 19:16:00,
2013-08-27 15:20:00,87.1,74.4,29.98,SW,221,4.0,9.0,66,0.00,,,0.00,Wunderground v.1.15,2013-08-27 19:20:00,
2013-08-27 15:22:00,87.0,74.3,29.98,SSW,211,4.0,9.0,66,0.00,,,0.00,Wunderground v.1.15,2013-08-27 19:22:00,
2013-08-27 15:24:00,86.9,74.2,29.98,West,274,5.0,9.0,66,0.00,,,0.00,Wunderground v.1.15,2013-08-27 19:24:00,
2013-08-27 15:26:00,86.8,74.1,29.98,SW,228,4.0,9.0,66,0.00,,,0.00,Wunderground v.1.15,2013-08-27 19:26:00,
2013-08-27 15:30:00,86.5,74.2,29.98,SW,226,5.0,8.0,67,0.00,,,0.00,Wunderground v.1.15,2013-08-27 19:30:00,
2013-08-27 15:34:00,86.6,74.8,29.98,SW,235,4.0,8.0,68,0.00,,,0.00,Wunderground v.1.15,2013-08-27 19:34:00,
2013-08-27 15:40:00,86.8,74.1,29.98,WNW,293,3.0,8.0,66,0.00,,,0.00,Wunderground v.1.15,2013-08-27 19:40:00,
2013-08-27 15:46:00,87.2,74.9,29.97,WNW,290,4.0,8.0,67,0.00,,,0.00,Wunderground v.1.15,2013-08-27 19:46:00,
2013-08-27 15:48:00,87.2,74.5,29.98,WSW,258,4.0,8.0,66,0.00,,,0.00,Wunderground v.1.15,2013-08-27 19:48:00,
2013-08-27 15:52:00,87.8,75.0,29.97,WSW,249,4.0,8.0,66,0.00,,,0.00,Wunderground v.1.15,2013-08-27 19:52:00,
2013-08-27 15:58:00,87.9,74.2,29.97,West,274,4.0,8.0,64,0.00,,,0.00,Wunderground v.1.15,2013-08-27 19:58:00,
2013-08-27 16:00:00,87.7,74.0,29.97,NW,311,5.0,8.0,64,0.00,,,0.00,Wunderground v.1.15,2013-08-27 20:00:00,
2013-08-27 16:02:00,87.5,73.8,29.97,WNW,297,5.0,8.0,64,0.00,,,0.00,Wunderground v.1.15,2013-08-27 20:02:00,
2013-08-27 16:06:00,87.7,74.5,29.96,SW,233,4.0,8.0,65,0.00,,,0.00,Wunderground v.1.15,2013-08-27 20:06:00,
2013-08-27 16:08:00,87.8,74.6,29.96,WSW,237,5.0,8.0,65,0.00,,,0.00,Wunderground v.1.15,2013-08-27 20:08:00,
2013-08-27 16:10:00,87.9,75.6,29.96,SW,227,4.0,8.0,67,0.00,,,0.00,Wunderground v.1.15,2013-08-27 20:10:00,
2013-08-27 16:12:00,87.9,74.7,29.97,SW,234,5.0,8.0,65,0.00,,,0.00,Wunderground v.1.15,2013-08-27 20:12:00,
2013-08-27 16:18:00,87.9,73.7,29.97,WSW,247,5.0,8.0,63,0.00,,,0.00,Wunderground v.1.15,2013-08-27 20:18:00,
2013-08-27 16:20:00,87.8,73.6,29.96,SW,226,6.0,6.0,63,0.00,,,0.00,Wunderground v.1.15,2013-08-27 20:20:00,
2013-08-27 16:22:00,87.7,73.5,29.96,West,265,6.0,8.0,63,0.00,,,0.00,Wunderground v.1.15,2013-08-27 20:22:00,
2013-08-27 16:28:00,87.2,72.6,29.96,SW,216,5.0,8.0,62,0.00,,,0.00,Wunderground v.1.15,2013-08-27 20:28:00,
2013-08-27 16:30:00,87.1,73.4,29.97,WSW,247,5.0,5.0,64,0.00,,,0.00,Wunderground v.1.15,2013-08-27 20:30:00,
2013-08-27 16:32:00,87.3,73.6,29.96,SW,222,6.0,6.0,64,0.00,,,0.00,Wunderground v.1.15,2013-08-27 20:32:00,
2013-08-27 16:34:00,87.4,73.7,29.96,SW,220,6.0,7.0,64,0.00,,,0.00,Wunderground v.1.15,2013-08-27 20:34:00,
2013-08-27 16:38:00,87.7,73.5,29.96,WSW,241,6.0,8.0,63,0.00,,,0.00,Wunderground v.1.15,2013-08-27 20:38:00,
2013-08-27 16:40:00,87.7,74.0,29.96,WSW,242,6.0,8.0,64,0.00,,,0.00,Wunderground v.1.15,2013-08-27 20:40:00,
2013-08-27 16:42:00,87.6,73.0,29.96,West,268,5.0,9.0,62,0.00,,,0.00,Wunderground v.1.15,2013-08-27 20:42:00,
2013-08-27 16:46:00,87.2,73.1,29.96,SW,218,6.0,9.0,63,0.00,,,0.00,Wunderground v.1.15,2013-08-27 20:46:00,
2013-08-27 16:48:00,87.1,73.4,29.96,WNW,286,5.0,9.0,64,0.00,,,0.00,Wunderground v.1.15,2013-08-27 20:48:00,
2013-08-27 16:50:00,87.0,73.3,29.96,West,260,5.0,5.0,64,0.00,,,0.00,Wunderground v.1.15,2013-08-27 20:50:00,
2013-08-27 16:52:00,87.0,73.3,29.96,SW,215,5.0,8.0,64,0.00,,,0.00,Wunderground v.1.15,2013-08-27 20:52:00,
2013-08-27 16:54:00,87.0,73.3,29.96,SSW,212,4.0,8.0,64,0.00,,,0.00,Wunderground v.1.15,2013-08-27 20:54:00,
2013-08-27 16:58:00,86.9,73.7,29.96,SW,233,4.0,8.0,65,0.00,,,0.00,Wunderground v.1.15,2013-08-27 20:58:00,
2013-08-27 17:00:00,86.8,73.2,29.96,SW,223,5.0,5.0,64,0.00,,,0.00,Wunderground v.1.15,2013-08-27 21:00:00,
2013-08-27 17:02:00,86.7,73.1,29.96,WSW,237,6.0,6.0,64,0.00,,,0.00,Wunderground v.1.15,2013-08-27 21:02:00,
2013-08-27 17:06:00,86.6,73.0,29.96,SW,227,5.0,8.0,64,0.00,,,0.00,Wunderground v.1.15,2013-08-27 21:06:00,
2013-08-27 17:10:00,86.5,72.4,29.95,SW,227,6.0,6.0,63,0.00,,,0.00,Wunderground v.1.15,2013-08-27 21:10:00,
2013-08-27 17:12:00,86.4,72.3,29.95,SSW,202,6.0,8.0,63,0.00,,,0.00,Wunderground v.1.15,2013-08-27 21:12:00,
2013-08-27 17:16:00,86.5,73.8,29.95,SW,233,6.0,8.0,66,0.00,,,0.00,Wunderground v.1.15,2013-08-27 21:16:00,
2013-08-27 17:18:00,86.5,72.9,29.95,WSW,243,6.0,8.0,64,0.00,,,0.00,Wunderground v.1.15,2013-08-27 21:18:00,
2013-08-27 17:24:00,86.8,73.6,29.95,WSW,241,5.0,8.0,65,0.00,,,0.00,Wunderground v.1.15,2013-08-27 21:24:00,
2013-08-27 17:26:00,87.0,73.3,29.95,South,191,5.0,8.0,64,0.00,,,0.00,Wunderground v.1.15,2013-08-27 21:26:00,
2013-08-27 17:28:00,87.1,73.4,29.95,WSW,243,4.0,8.0,64,0.00,,,0.00,Wunderground v.1.15,2013-08-27 21:28:00,
2013-08-27 17:32:00,87.1,73.4,29.95,SW,236,5.0,8.0,64,0.00,,,0.00,Wunderground v.1.15,2013-08-27 21:32:00,
2013-08-27 17:34:00,87.0,73.8,29.95,SW,236,4.0,8.0,65,0.00,,,0.00,Wunderground v.1.15,2013-08-27 21:34:00,
2013-08-27 17:38:00,87.0,73.8,29.95,WSW,243,4.0,8.0,65,0.00,,,0.00,Wunderground v.1.15,2013-08-27 21:38:00,
2013-08-27 17:40:00,87.0,73.8,29.95,West,260,4.0,4.0,65,0.00,,,0.00,Wunderground v.1.15,2013-08-27 21:40:00,
2013-08-27 17:44:00,87.1,72.5,29.95,SSW,199,3.0,8.0,62,0.00,,,0.00,Wunderground v.1.15,2013-08-27 21:44:00,
2013-08-27 17:46:00,87.1,73.4,29.95,SW,216,3.0,8.0,64,0.00,,,0.00,Wunderground v.1.15,2013-08-27 21:46:00,
2013-08-27 17:48:00,87.3,73.2,29.95,SW,227,3.0,8.0,63,0.00,,,0.00,Wunderground v.1.15,2013-08-27 21:48:00,
2013-08-27 17:52:00,87.3,73.2,29.95,WNW,294,3.0,8.0,63,0.00,,,0.00,Wunderground v.1.15,2013-08-27 21:52:00,
2013-08-27 17:54:00,87.2,73.1,29.95,WNW,301,4.0,8.0,63,0.00,,,0.00,Wunderground v.1.15,2013-08-27 21:54:00,
2013-08-27 17:58:00,87.0,73.3,29.95,West,263,4.0,8.0,64,0.00,,,0.00,Wunderground v.1.15,2013-08-27 21:58:00,
2013-08-27 18:00:00,86.9,73.3,29.95,West,278,4.0,4.0,64,0.00,,,0.00,Wunderground v.1.15,2013-08-27 22:00:00,
2013-08-27 18:02:00,86.8,73.2,29.95,SW,233,4.0,9.0,64,0.00,,,0.00,Wunderground v.1.15,2013-08-27 22:02:00,
2013-08-27 18:04:00,86.8,73.2,29.95,SW,224,5.0,9.0,64,0.00,,,0.00,Wunderground v.1.15,2013-08-27 22:04:00,
2013-08-27 18:06:00,86.8,73.2,29.95,WSW,241,5.0,9.0,64,0.00,,,0.00,Wunderground v.1.15,2013-08-27 22:06:00,
2013-08-27 18:08:00,87.0,73.3,29.95,WSW,256,5.0,9.0,64,0.00,,,0.00,Wunderground v.1.15,2013-08-27 22:08:00,
2013-08-27 18:14:00,87.3,73.6,29.95,West,261,4.0,8.0,64,0.00,,,0.00,Wunderground v.1.15,2013-08-27 22:14:00,
2013-08-27 18:16:00,87.3,73.6,29.95,SW,224,4.0,8.0,64,0.00,,,0.00,Wunderground v.1.15,2013-08-27 22:16:00,
2013-08-27 18:20:00,87.1,73.9,29.95,WNW,284,5.0,8.0,65,0.00,,,0.00,Wunderground v.1.15,2013-08-27 22:20:00,
2013-08-27 18:22:00,86.9,73.7,29.95,WNW,288,5.0,8.0,65,0.00,,,0.00,Wunderground v.1.15,2013-08-27 22:22:00,
2013-08-27 18:24:00,86.8,73.6,29.95,SW,224,5.0,8.0,65,0.00,,,0.00,Wunderground v.1.15,2013-08-27 22:24:00,
2013-08-27 18:28:00,86.8,74.1,29.95,WSW,247,4.0,8.0,66,0.00,,,0.00,Wunderground v.1.15,2013-08-27 22:28:00,
2013-08-27 18:30:00,86.8,74.1,29.95,West,276,3.0,3.0,66,0.00,,,0.00,Wunderground v.1.15,2013-08-27 22:30:00,
2013-08-27 18:32:00,86.9,74.2,29.95,SW,235,3.0,8.0,66,0.00,,,0.00,Wunderground v.1.15,2013-08-27 22:32:00,
2013-08-27 18:34:00,86.8,74.1,29.95,SW,236,3.0,8.0,66,0.00,,,0.00,Wunderground v.1.15,2013-08-27 22:34:00,
2013-08-27 18:36:00,86.7,74.4,29.96,WNW,284,3.0,8.0,67,0.00,,,0.00,Wunderground v.1.15,2013-08-27 22:36:00,
2013-08-27 18:40:00,86.5,73.3,29.95,WSW,242,4.0,8.0,65,0.00,,,0.00,Wunderground v.1.15,2013-08-27 22:40:00,
2013-08-27 18:42:00,86.6,73.4,29.95,NW,310,4.0,8.0,65,0.00,,,0.00,Wunderground v.1.15,2013-08-27 22:42:00,
2013-08-27 18:44:00,86.7,74.0,29.95,West,274,3.0,8.0,66,0.00,,,0.00,Wunderground v.1.15,2013-08-27 22:44:00,
2013-08-27 18:46:00,86.8,74.1,29.95,WSW,241,3.0,8.0,66,0.00,,,0.00,Wunderground v.1.15,2013-08-27 22:46:00,
2013-08-27 18:50:00,86.6,73.0,29.95,West,260,4.0,4.0,64,0.00,,,0.00,Wunderground v.1.15,2013-08-27 22:50:00,
2013-08-27 18:56:00,86.5,72.9,29.96,SSW,211,6.0,8.0,64,0.00,,,0.00,Wunderground v.1.15,2013-08-27 22:56:00,
2013-08-27 18:58:00,86.4,72.8,29.96,SW,215,6.0,8.0,64,0.00,,,0.00,Wunderground v.1.15,2013-08-27 22:58:00,
2013-08-27 19:00:00,86.3,73.1,29.95,SW,228,6.0,8.0,65,0.00,,,0.00,Wunderground v.1.15,2013-08-27 23:00:00,
2013-08-27 19:02:00,86.3,73.1,29.95,SW,223,7.0,8.0,65,0.00,,,0.00,Wunderground v.1.15,2013-08-27 23:02:00,
2013-08-27 19:06:00,86.3,73.1,29.95,WSW,239,6.0,8.0,65,0.00,,,0.00,Wunderground v.1.15,2013-08-27 23:06:00,
2013-08-27 19:08:00,86.3,73.1,29.95,South,189,5.0,8.0,65,0.00,,,0.00,Wunderground v.1.15,2013-08-27 23:08:00,
2013-08-27 19:12:00,86.2,73.5,29.95,WSW,252,4.0,8.0,66,0.00,,,0.00,Wunderground v.1.15,2013-08-27 23:12:00,
2013-08-27 19:14:00,86.2,73.5,29.95,SW,224,3.0,8.0,66,0.00,,,0.00,Wunderground v.1.15,2013-08-27 23:14:00,
2013-08-27 19:20:00,86.1,73.9,29.95,SW,226,3.0,3.0,67,0.00,,,0.00,Wunderground v.1.15,2013-08-27 23:20:00,
2013-08-27 19:22:00,86.1,74.3,29.95,SW,216,2.0,8.0,68,0.00,,,0.00,Wunderground v.1.15,2013-08-27 23:22:00,
2013-08-27 19:24:00,86.0,73.8,29.95,SW,230,2.0,8.0,67,0.00,,,0.00,Wunderground v.1.15,2013-08-27 23:24:00,
2013-08-27 19:28:00,85.7,73.5,29.95,SW,227,3.0,8.0,67,0.00,,,0.00,Wunderground v.1.15,2013-08-27 23:28:00,
2013-08-27 19:30:00,85.6,73.8,29.95,West,262,4.0,4.0,68,0.00,,,0.00,Wunderground v.1.15,2013-08-27 23:30:00,
2013-08-27 19:32:00,85.5,73.7,29.95,SW,224,4.0,5.0,68,0.00,,,0.00,Wunderground v.1.15,2013-08-27 23:32:00,
2013-08-27 19:38:00,85.1,73.3,29.95,WSW,237,4.0,9.0,68,0.00,,,0.00,Wunderground v.1.15,2013-08-27 23:38:00,
2013-08-27 19:40:00,85.0,73.3,29.95,WSW,253,5.0,8.0,68,0.00,,,0.00,Wunderground v.1.15,2013-08-27 23:40:00,
2013-08-27 19:42:00,84.9,73.2,29.95,SW,231,6.0,8.0,68,0.00,,,0.00,Wunderground v.1.15,2013-08-27 23:42:00,
2013-08-27 19:44:00,84.8,73.5,29.95,SSW,204,6.0,8.0,69,0.00,,,0.00,Wunderground v.1.15,2013-08-27 23:44:00,
2013-08-27 19:50:00,84.3,73.0,29.95,SW,214,5.0,5.0,69,0.00,,,0.00,Wunderground v.1.15,2013-08-27 23:50:00,
2013-08-27 19:54:00,84.1,72.8,29.95,WSW,248,5.0,8.0,69,0.00,,,0.00,Wunderground v.1.15,2013-08-27 23:54:00,
2013-08-27 19:56:00,84.0,72.7,29.95,SW,236,5.0,8.0,69,0.00,,,0.00,Wunderground v.1.15,2013-08-27 23:56:00,
2013-08-27 19:58:00,83.9,73.1,29.95,SW,235,5.0,8.0,70,0.00,,,0.00,Wunderground v.1.15,2013-08-27 23:58:00,
2013-08-27 20:02:00,83.6,72.8,29.95,SW,218,4.0,8.0,70,0.00,,,0.00,Wunderground v.1.15,2013-08-28 00:02:00,
2013-08-27 20:04:00,83.4,72.6,29.95,SW,231,4.0,8.0,70,0.00,,,0.00,Wunderground v.1.15,2013-08-28 00:04:00,
2013-08-27 20:06:00,83.2,72.4,29.96,SW,221,4.0,8.0,70,0.00,,,0.00,Wunderground v.1.15,2013-08-28 00:06:00,
2013-08-27 20:08:00,83.1,72.7,29.95,SW,217,4.0,8.0,71,0.00,,,0.00,Wunderground v.1.15,2013-08-28 00:08:00,
2013-08-27 20:12:00,82.8,72.4,29.96,SW,216,4.0,8.0,71,0.00,,,0.00,Wunderground v.1.15,2013-08-28 00:12:00,
2013-08-27 20:18:00,82.5,72.6,29.95,SSW,211,4.0,8.0,72,0.00,,,0.00,Wunderground v.1.15,2013-08-28 00:18:00,
2013-08-27 20:20:00,82.3,72.4,29.95,SW,226,3.0,8.0,72,0.00,,,0.00,Wunderground v.1.15,2013-08-28 00:20:00,
2013-08-27 20:22:00,82.2,72.3,29.95,SW,224,3.0,8.0,72,0.00,,,0.00,Wunderground v.1.15,2013-08-28 00:22:00,
2013-08-27 20:24:00,82.1,72.2,29.95,SW,218,3.0,8.0,72,0.00,,,0.00,Wunderground v.1.15,2013-08-28 00:24:00,
2013-08-27 20:26:00,82.0,72.5,29.95,SW,214,3.0,8.0,73,0.00,,,0.00,Wunderground v.1.15,2013-08-28 00:26:00,
2013-08-27 20:28:00,81.9,72.4,29.95,SSW,207,3.0,8.0,73,0.00,,,0.00,Wunderground v.1.15,2013-08-28 00:28:00,
2013-08-27 20:34:00,81.7,72.2,29.95,SSW,206,3.0,8.0,73,0.00,,,0.00,Wunderground v.1.15,2013-08-28 00:34:00,
2013-08-27 20:36:00,81.6,72.1,29.95,SSW,210,4.0,8.0,73,0.00,,,0.00,Wunderground v.1.15,2013-08-28 00:36:00,
2013-08-27 20:38:00,81.6,72.1,29.95,SSW,200,4.0,8.0,73,0.00,,,0.00,Wunderground v.1.15,2013-08-28 00:38:00,
2013-08-27 20:40:00,81.6,72.1,29.95,SSW,208,4.0,8.0,73,0.00,,,0.00,Wunderground v.1.15,2013-08-28 00:40:00,
2013-08-27 20:42:00,81.6,72.1,29.95,SW,214,4.0,8.0,73,0.00,,,0.00,Wunderground v.1.15,2013-08-28 00:42:00,
2013-08-27 20:46:00,81.5,72.4,29.95,SSW,202,4.0,8.0,74,0.00,,,0.00,Wunderground v.1.15,2013-08-28 00:46:00,
2013-08-27 20:48:00,81.4,72.3,29.95,SSW,201,4.0,8.0,74,0.00,,,0.00,Wunderground v.1.15,2013-08-28 00:48:00,
2013-08-27 20:50:00,81.3,72.2,29.95,SSW,203,4.0,8.0,74,0.00,,,0.00,Wunderground v.1.15,2013-08-28 00:50:00,
2013-08-27 20:54:00,81.1,72.0,29.95,SSW,208,4.0,8.0,74,0.00,,,0.00,Wunderground v.1.15,2013-08-28 00:54:00,
2013-08-27 20:56:00,81.1,72.4,29.95,SW,219,4.0,8.0,75,0.00,,,0.00,Wunderground v.1.15,2013-08-28 00:56:00,
2013-08-27 21:00:00,81.0,72.3,29.95,SSW,203,5.0,8.0,75,0.00,,,0.00,Wunderground v.1.15,2013-08-28 01:00:00,
2013-08-27 21:02:00,80.9,72.2,29.95,SSW,192,5.0,8.0,75,0.00,,,0.00,Wunderground v.1.15,2013-08-28 01:02:00,
2013-08-27 21:04:00,80.8,72.1,29.95,SSW,200,5.0,8.0,75,0.00,,,0.00,Wunderground v.1.15,2013-08-28 01:04:00,
2013-08-27 21:06:00,80.8,72.1,29.95,SSW,213,5.0,8.0,75,0.00,,,0.00,Wunderground v.1.15,2013-08-28 01:06:00,
2013-08-27 21:12:00,80.8,72.5,29.95,SSW,212,5.0,8.0,76,0.00,,,0.00,Wunderground v.1.15,2013-08-28 01:12:00,
2013-08-27 21:16:00,80.8,72.5,29.95,SSW,201,5.0,8.0,76,0.00,,,0.00,Wunderground v.1.15,2013-08-28 01:16:00,
2013-08-27 21:18:00,80.8,72.5,29.95,SSW,200,5.0,8.0,76,0.00,,,0.00,Wunderground v.1.15,2013-08-28 01:18:00,
2013-08-27 21:20:00,80.7,72.4,29.95,SSW,203,5.0,8.0,76,0.00,,,0.00,Wunderground v.1.15,2013-08-28 01:20:00,
2013-08-27 21:24:00,80.7,72.4,29.95,SW,220,5.0,8.0,76,0.00,,,0.00,Wunderground v.1.15,2013-08-28 01:24:00,
2013-08-27 21:30:00,80.5,72.6,29.95,SW,222,5.0,5.0,77,0.00,,,0.00,Wunderground v.1.15,2013-08-28 01:30:00,
2013-08-27 21:32:00,80.3,72.4,29.95,SW,219,4.0,8.0,77,0.00,,,0.00,Wunderground v.1.15,2013-08-28 01:32:00,
2013-08-27 21:34:00,80.2,72.3,29.96,SW,222,4.0,8.0,77,0.00,,,0.00,Wunderground v.1.15,2013-08-28 01:34:00,
2013-08-27 21:36:00,80.1,72.2,29.96,SW,231,4.0,8.0,77,0.00,,,0.00,Wunderground v.1.15,2013-08-28 01:36:00,
2013-08-27 21:40:00,80.0,72.5,29.96,SW,216,4.0,8.0,78,0.00,,,0.00,Wunderground v.1.15,2013-08-28 01:40:00,
2013-08-27 21:42:00,79.9,72.4,29.96,SW,224,4.0,8.0,78,0.00,,,0.00,Wunderground v.1.15,2013-08-28 01:42:00,
2013-08-27 21:44:00,79.8,72.3,29.96,SW,214,4.0,8.0,78,0.00,,,0.00,Wunderground v.1.15,2013-08-28 01:44:00,
2013-08-27 21:46:00,79.8,72.3,29.96,SW,224,4.0,8.0,78,0.00,,,0.00,Wunderground v.1.15,2013-08-28 01:46:00,
2013-08-27 21:52:00,79.7,72.2,29.96,SW,220,4.0,8.0,78,0.00,,,0.00,Wunderground v.1.15,2013-08-28 01:52:00,
2013-08-27 21:54:00,79.6,72.1,29.96,SSW,204,4.0,8.0,78,0.00,,,0.00,Wunderground v.1.15,2013-08-28 01:54:00,
2013-08-27 21:58:00,79.5,72.4,29.96,SSW,210,4.0,8.0,79,0.00,,,0.00,Wunderground v.1.15,2013-08-28 01:58:00,
2013-08-27 22:00:00,79.4,72.3,29.96,SW,226,4.0,4.0,79,0.00,,,0.00,Wunderground v.1.15,2013-08-28 02:00:00,
2013-08-27 22:06:00,79.4,72.3,29.96,SW,230,4.0,8.0,79,0.00,,,0.00,Wunderground v.1.15,2013-08-28 02:06:00,
2013-08-27 22:08:00,79.4,72.3,29.96,SW,216,4.0,8.0,79,0.00,,,0.00,Wunderground v.1.15,2013-08-28 02:08:00,
2013-08-27 22:10:00,79.3,72.2,29.96,WSW,239,4.0,8.0,79,0.00,,,0.00,Wunderground v.1.15,2013-08-28 02:10:00,
2013-08-27 22:12:00,79.3,72.2,29.96,SSW,202,4.0,8.0,79,0.00,,,0.00,Wunderground v.1.15,2013-08-28 02:12:00,
2013-08-27 22:14:00,79.2,72.1,29.96,SW,225,4.0,8.0,79,0.00,,,0.00,Wunderground v.1.15,2013-08-28 02:14:00,
2013-08-27 22:18:00,79.1,72.0,29.96,SSW,202,4.0,8.0,79,0.00,,,0.00,Wunderground v.1.15,2013-08-28 02:18:00,
2013-08-27 22:22:00,79.0,71.9,29.96,SSW,209,4.0,8.0,79,0.00,,,0.00,Wunderground v.1.15,2013-08-28 02:22:00,
2013-08-27 22:24:00,79.0,72.3,29.96,SSW,207,4.0,8.0,80,0.00,,,0.00,Wunderground v.1.15,2013-08-28 02:24:00,
2013-08-27 22:28:00,78.9,72.2,29.96,SSW,210,4.0,8.0,80,0.00,,,0.00,Wunderground v.1.15,2013-08-28 02:28:00,
2013-08-27 22:30:00,78.8,72.1,29.96,SSW,209,4.0,4.0,80,0.00,,,0.00,Wunderground v.1.15,2013-08-28 02:30:00,
2013-08-27 22:32:00,78.7,72.0,29.96,SW,229,4.0,8.0,80,0.00,,,0.00,Wunderground v.1.15,2013-08-28 02:32:00,
2013-08-27 22:34:00,78.7,72.0,29.96,SW,228,4.0,8.0,80,0.00,,,0.00,Wunderground v.1.15,2013-08-28 02:34:00,
2013-08-27 22:36:00,78.7,72.0,29.96,SW,233,4.0,8.0,80,0.00,,,0.00,Wunderground v.1.15,2013-08-28 02:36:00,
2013-08-27 22:40:00,78.7,72.0,29.96,SW,231,4.0,8.0,80,0.00,,,0.00,Wunderground v.1.15,2013-08-28 02:40:00,
2013-08-27 22:42:00,78.6,71.9,29.96,SW,236,4.0,8.0,80,0.00,,,0.00,Wunderground v.1.15,2013-08-28 02:42:00,
2013-08-27 22:44:00,78.6,71.9,29.96,SW,222,4.0,8.0,80,0.00,,,0.00,Wunderground v.1.15,2013-08-28 02:44:00,
2013-08-27 22:46:00,78.5,71.8,29.96,WSW,237,4.0,8.0,80,0.00,,,0.00,Wunderground v.1.15,2013-08-28 02:46:00,
2013-08-27 22:48:00,78.5,71.8,29.96,SW,219,4.0,8.0,80,0.00,,,0.00,Wunderground v.1.15,2013-08-28 02:48:00,
2013-08-27 22:52:00,78.5,72.2,29.96,SW,215,4.0,8.0,81,0.00,,,0.00,Wunderground v.1.15,2013-08-28 02:52:00,
2013-08-27 22:54:00,78.5,72.2,29.96,WSW,239,4.0,8.0,81,0.00,,,0.00,Wunderground v.1.15,2013-08-28 02:54:00,
2013-08-27 22:56:00,78.4,72.1,29.96,SW,227,4.0,8.0,81,0.00,,,0.00,Wunderground v.1.15,2013-08-28 02:56:00,
2013-08-27 22:58:00,78.4,72.1,29.96,SW,218,4.0,8.0,81,0.00,,,0.00,Wunderground v.1.15,2013-08-28 02:58:00,
2013-08-27 23:00:00,78.4,72.1,29.96,SW,227,5.0,8.0,81,0.00,,,0.00,Wunderground v.1.15,2013-08-28 03:00:00,
2013-08-27 23:06:00,78.4,72.1,29.96,SW,218,5.0,8.0,81,0.00,,,0.00,Wunderground v.1.15,2013-08-28 03:06:00,
2013-08-27 23:08:00,78.5,72.2,29.96,WSW,237,5.0,8.0,81,0.00,,,0.00,Wunderground v.1.15,2013-08-28 03:08:00,
2013-08-27 23:12:00,78.5,72.2,29.96,SW,226,6.0,8.0,81,0.00,,,0.00,Wunderground v.1.15,2013-08-28 03:12:00,
2013-08-27 23:14:00,78.5,72.2,29.96,SW,226,6.0,11.0,81,0.00,,,0.00,Wunderground v.1.15,2013-08-28 03:14:00,
2013-08-27 23:16:00,78.5,72.2,29.96,SW,227,6.0,11.0,81,0.00,,,0.00,Wunderground v.1.15,2013-08-28 03:16:00,
2013-08-27 23:18:00,78.5,72.2,29.96,SW,225,6.0,11.0,81,0.00,,,0.00,Wunderground v.1.15,2013-08-28 03:18:00,
2013-08-27 23:22:00,78.4,72.1,29.96,WSW,240,6.0,8.0,81,0.00,,,0.00,Wunderground v.1.15,2013-08-28 03:22:00,
2013-08-27 23:24:00,78.4,72.1,29.96,SW,234,6.0,8.0,81,0.00,,,0.00,Wunderground v.1.15,2013-08-28 03:24:00,
2013-08-27 23:26:00,78.4,72.1,29.96,SW,224,6.0,9.0,81,0.00,,,0.00,Wunderground v.1.15,2013-08-28 03:26:00,
2013-08-27 23:32:00,78.2,71.9,29.96,SSW,203,6.0,8.0,81,0.00,,,0.00,Wunderground v.1.15,2013-08-28 03:32:00,
2013-08-27 23:34:00,78.2,71.9,29.96,SW,233,6.0,8.0,81,0.00,,,0.00,Wunderground v.1.15,2013-08-28 03:34:00,
2013-08-27 23:36:00,78.1,71.8,29.96,SW,233,5.0,8.0,81,0.00,,,0.00,Wunderground v.1.15,2013-08-28 03:36:00,
2013-08-27 23:38:00,78.1,71.8,29.96,SW,236,5.0,8.0,81,0.00,,,0.00,Wunderground v.1.15,2013-08-28 03:38:00,
2013-08-27 23:40:00,78.1,72.2,29.96,WSW,242,5.0,8.0,82,0.00,,,0.00,Wunderground v.1.15,2013-08-28 03:40:00,
2013-08-27 23:46:00,78.0,72.1,29.96,SW,216,6.0,8.0,82,0.00,,,0.00,Wunderground v.1.15,2013-08-28 03:46:00,
2013-08-27 23:48:00,77.9,72.0,29.96,SW,216,6.0,8.0,82,0.00,,,0.00,Wunderground v.1.15,2013-08-28 03:48:00,
2013-08-27 23:50:00,77.9,72.0,29.96,SW,227,5.0,8.0,82,0.00,,,0.00,Wunderground v.1.15,2013-08-28 03:50:00,
2013-08-27 23:54:00,77.9,72.0,29.96,SW,232,6.0,10.0,82,0.00,,,0.00,Wunderground v.1.15,2013-08-28 03:54:00,
2013-08-27 23:56:00,77.8,71.9,29.96,SW,230,6.0,10.0,82,0.00,,,0.00,Wunderground v.1.15,2013-08-28 03:56:00,
2013-08-27 23:58:00,77.8,71.9,29.96,SW,228,6.0,10.0,82,0.00,,,0.00,Wunderground v.1.15,2013-08-28 03:58:00,